Mount Holly, NJ

3:38 PM EST on December 06, 2019 (GMT -0500)
South Jersey Regional

Weather History for KVAY - September, 2019

Change the Weather History Date:

Monday, September 9, 2019

  Actual Average (WUND) Record (WUND)
Temperature  
Mean Temperature 73 °F -  
Max Temperature 84 °F - - (-1)
Min Temperature 64 °F - - (-1)
Cooling Degree Days 8    
Growing Degree Days 23 (Base 50)    
Moisture  
Dew Point 63 °F    
Average Humidity 80    
Maximum Humidity 93    
Minimum Humidity 49    
Precipitation  
Precipitation 0.00 in - - ()
Sea Level Pressure  
Sea Level Pressure 30.20 in    
Wind  
Wind Speed 2 mph (ENE)    
Max Wind Speed 5 mph    
Max Gust Speed -    
Visibility 9 miles    
Events Rain    
Averages and records for this station are not official NWS values.
T = Trace of Precipitation, MM = Missing Value Source: NWS Daily Summary

Daily Weather History Graph

Daily Weather History Graph

Search for Another Location

Airport or City:

Astronomy

Sep. 09, 2019 Rise Set
Actual Time 6:34 AM EDT 7:18 PM EDT
Civil Twilight 6:07 AM EDT 7:45 PM EDT
Nautical Twilight 5:34 AM EDT 8:17 PM EDT
Astronomical Twilight 5:01 AM EDT 8:51 PM EDT
Moon 5:11 PM EDT (9/9) 2:03 AM EDT (9/9)
Length of Visible Light 13h 38m
Length of Day
12h 43m
Waxing Gibbous, 83% of the Moon is Illuminated
Sep 9
Waxing Gibbous
Sep 14
Full
Sep 21
Last Quarter
Sep 28
New
Oct 5
First Quarter

Hourly Weather History & Observations

Time (EDT) Temp. Heat Index Dew Point Humidity Pressure Visibility Wind Dir Wind Speed Gust Speed Precip Events Conditions
12:54 AM 64.9 °F - 60.1 °F 84% 30.13 in 10.0 mi Calm Calm - N/A   Clear
1:54 AM 64.0 °F - 61.0 °F 90% 30.13 in 10.0 mi NNE 3.5 mph - N/A   Clear
2:54 AM 64.9 °F - 61.0 °F 87% 30.13 in 10.0 mi Calm Calm - N/A   Clear
3:54 AM 64.9 °F - 62.1 °F 90% 30.14 in 10.0 mi Calm Calm - N/A   Clear
4:54 AM 64.9 °F - 62.1 °F 90% 30.14 in 10.0 mi Calm Calm - N/A   Partly Cloudy
5:54 AM 64.9 °F - 62.1 °F 90% 30.16 in 10.0 mi Calm Calm - N/A   Overcast
6:54 AM 64.0 °F - 62.1 °F 93% 30.18 in 7.0 mi Calm Calm - N/A   Scattered Clouds
7:54 AM 69.1 °F - 64.9 °F 87% 30.19 in 9.0 mi NE 3.5 mph - N/A   Partly Cloudy
8:02 AM 69.1 °F - 64.9 °F 87% 30.20 in 10.0 mi ENE 4.6 mph - N/A   Scattered Clouds
8:11 AM 69.1 °F - 64.9 °F 87% 30.20 in 10.0 mi Variable 4.6 mph - N/A   Mostly Cloudy
8:40 AM 70.0 °F - 66.0 °F 87% 30.20 in 10.0 mi NE 3.5 mph - N/A   Scattered Clouds
8:54 AM 71.1 °F - 66.0 °F 84% 30.21 in 10.0 mi ENE 4.6 mph - N/A   Scattered Clouds
9:54 AM 73.9 °F - 64.0 °F 71% 30.21 in 10.0 mi Calm Calm - N/A   Clear
10:54 AM 78.1 °F - 64.9 °F 64% 30.21 in 10.0 mi Variable 3.5 mph - N/A   Clear
11:54 AM 78.1 °F - 64.0 °F 62% 30.21 in 10.0 mi ENE 4.6 mph - N/A   Scattered Clouds
12:54 PM 81.0 °F 82.5 °F 64.0 °F 56% 30.20 in 10.0 mi North 4.6 mph - N/A   Clear
1:54 PM 80.1 °F 80.9 °F 60.1 °F 50% 30.19 in 10.0 mi Calm Calm - N/A   Partly Cloudy
2:54 PM 82.9 °F 83.7 °F 62.1 °F 49% 30.17 in 10.0 mi East 4.6 mph - N/A   Overcast
4:54 PM 75.9 °F - 63.0 °F 64% 30.19 in 10.0 mi Variable 4.6 mph - N/A   Overcast
5:54 PM 72.0 °F - 64.9 °F 78% 30.22 in 10.0 mi East 4.6 mph - 0.00 in Rain Light Rain
6:54 PM 71.1 °F - 64.9 °F 81% 30.22 in 10.0 mi ESE 4.6 mph - 0.00 in   Scattered Clouds
7:54 PM 70.0 °F - 64.9 °F 84% 30.22 in 10.0 mi East 3.5 mph - N/A   Clear
8:54 PM 68.0 °F - 64.9 °F 90% 30.24 in 10.0 mi ESE 3.5 mph - N/A   Clear
9:54 PM 66.0 °F - 64.0 °F 93% 30.26 in 10.0 mi Calm Calm - N/A   Clear
10:54 PM 64.0 °F - 62.1 °F 93% 30.27 in 6.0 mi Calm Calm - N/A   Clear
11:54 PM 64.0 °F - 62.1 °F 93% 30.27 in 3.0 mi Calm Calm - N/A   Clear